This demonstration page uses our WeatherBlox Daily Observations layout. Learn more.

Left ArrowRight Arrow

Hourly Observations for August 10, 2022

Temp ( °F °C ) Dew Point ( °F °C ) Humidity (%) Winds ( mph kmh ) Pressure ( in mb ) Visibility ( mi km ) Precip ( " mm )
12:53 am 00:53 Partly Cloudy 82 27.8 67 19.4 60 60 E 5 7 30.01 1016 10 16 0.00 0.00
1:53 am 01:53 Partly Cloudy 81 27.2 69 20.6 67 67 ESE 6 9 30.00 1016 10 16 0.00 0.00
2:53 am 02:53 Partly Cloudy 81 27.2 70 21.1 69 69 SE 10 17 30.00 1016 10 16 0.00 0.00
3:53 am 03:53 Mostly Clear 80 26.7 71 21.7 74 74 ESE 7 11 30.00 1016 10 16 0.00 0.00
4:53 am 04:53 Partly Cloudy 80 26.7 71 21.7 74 74 E 5 7 30.01 1016 10 16 0.00 0.00
5:53 am 05:53 Mostly Clear 79 26.1 71 21.7 77 77 E 5 7 30.02 1017 10 16 0.00 0.00
6:53 am 06:53 Partly Cloudy 78 25.6 72 22.2 82 82 ESE 5 7 30.04 1017 10 16 0.00 0.00
7:53 am 07:53 Partly Cloudy 80 26.7 72 22.2 76 76 ESE 6 9 30.05 1018 10 16 0.00 0.00
8:53 am 08:53 Mostly Cloudy 84 28.9 72 22.2 67 67 Calm 30.06 1018 10 16 0.00 0.00
9:53 am 09:53 Partly Cloudy 86 30 72 22.2 63 63 S 3 6 30.06 1018 10 16 0.00 0.00
10:53 am 10:53 Partly Cloudy 93 33.9 71 21.7 49 49 SSW 6 9 30.05 1018 10 16 0.00 0.00
11:53 am 11:53 Partly Cloudy 96 35.6 71 21.7 45 45 Calm 30.05 1018 10 16 0.00 0.00
12:53 pm 12:53 Mostly Cloudy 99 37.2 71 21.7 41 41 NW 10 17 30.02 1017 10 16 0.00 0.00
1:08 pm 13:08 Mostly Cloudy with Thunderstorms 96 35.6 71 21.7 45 45 NW 6 9 30.00 1016 10 16 0.00 0.00
1:53 pm 13:53 Mostly Cloudy with Thunderstorms 100 37.8 68 20 36 36 WNW 10 17 29.99 1016 10 16 0.00 0.00
2:19 pm 14:19 Mostly Cloudy 98 36.7 68 20 38 38 W 10 17 29.96 1015 10 16 0.00 0.00
2:36 pm 14:36 Mostly Cloudy with Thunderstorms 96 35.6 69 20.6 42 42 VRB 7 11 29.96 1015 10 16 0.00 0.00
2:53 pm 14:53 Mostly Cloudy with Thunderstorms 96 35.6 69 20.6 42 42 W 6 9 29.97 1015 10 16 0.00 0.00
3:27 pm 15:27 Mostly Cloudy 97 36.1 68 20 39 39 WSW 8 13 29.95 1014 10 16 0.00 0.00
3:53 pm 15:53 Mostly Cloudy with Thunderstorms 89 31.7 70 21.1 54 54 S 14 22 29.97 1015 10 16 0.00 0.00
4:34 pm 16:34 Mostly Cloudy with Thunderstorms 82 27.8 71 21.7 69 69 S 15 24 29.98 1015 10 16 0.01 0.13
4:53 pm 16:53 Cloudy with Thunderstorms 81 27.2 71 21.7 72 72 S 14 22 29.99 1016 10 16 0.01 0.13
5:10 pm 17:10 Cloudy with Thunderstorms 81 27.2 72 22.2 74 74 SE 13 20 30.00 1016 10 16 0.01 0.13
5:53 pm 17:53 Cloudy with Thunderstorms 81 27.2 71 21.7 72 72 SE 10 17 30.01 1016 5 8 0.01 0.13
6:39 pm 18:39 Cloudy with Thunderstorms 77 25 74 23.3 90 90 NE 10 17 30.06 1018 7 11 0.03 0.76
6:53 pm 18:53 Cloudy with Thunderstorms 77 25 74 23.3 90 90 ENE 8 13 30.05 1018 7 11 0.04 1.02
7:20 pm 19:20 Mostly Cloudy with Rain 77 25 74 23.3 90 90 ESE 5 7 30.03 1017 8 13 0.02 0.51
7:37 pm 19:37 Mostly Cloudy with Thunderstorms 79 26 73 23 84 84 S 5 7 30.01 1016 7 11 0.00 0.00
7:53 pm 19:53 Mostly Cloudy with Thunderstorms 78 25.6 74 23.3 87 87 S 6 9 29.99 1016 7 11 0.08 2.03
8:03 pm 20:03 Mostly Cloudy with Light Rain 78 25.6 74 23.3 87 87 S 3 6 29.98 1015 8 13 0.01 0.25
8:53 pm 20:53 Mostly Cloudy 79 26.1 74 23.3 85 85 Calm 29.97 1015 10 16 0.02 0.51
9:53 pm 21:53 Cloudy 80 26.7 75 23.9 85 85 Calm 30.00 1016 10 16 0.00 0.00
10:53 pm 22:53 Mostly Cloudy 78 25.6 75 23.9 90 90 ESE 8 13 30.03 1017 10 16 0.00 0.00
11:53 pm 23:53 Mostly Cloudy 76 24.4 74 23.3 94 94 ESE 6 9 30.03 1017 10 16 0.00 0.00

Powered by AerisWeather